星链-30219 (STARLINK-30219 )

导读

STARLINK-30219是美国SpaceX星链项目的卫星,于2023年8月7日发射,属于星链低轨互联网星座的组网卫星,旨在为全球提供高速低延迟互联网接入服务。星链卫星在完成组网后,将服务偏远地区网络覆盖等场景,同时也引发了天文观测和太空碎片等方面的讨论。

Basic Information
目录编号:
57507
目录名称:
STARLINK-30219
国际标识:
2023-113N
轨道中心:
EARTH
卫星名称:
星链-30219
卫星全名:
星链-30219 (STARLINK-30219 )
卫星状态:
在轨 (已飞行1046 天)
发射日期:
2023-08-07 UTC
国别 :
美国 (US)
星等 :
--
Orbit Information
数据来源 国际轨道数据 AOE轨道数据
星历时间 2026-06-18T09:02:22+0800
13小时前
查看轨道信息
2026-06-15T05:00:00+0800
3天前
查看轨道信息
半长轴 6850.435km 6850.417km
偏心率 0.0000695 0.0000976
轨道倾角 43.007° 43.000°
近地点辐角 253.772° 32.115°
升交点赤经 168.392° 186.386°
平近点角 106.305° 123.035°
近地点 471.821km 471.611km
远地点 472.775km 472.949km
周期 94.045分钟 94.045分钟
每日圈数 15.311777 15.311837
Detailed Information
固有亮度:
5
最大亮度:
0.3
卫星平台:
Starlink v2.0 mini
覆盖范围:
全球
运营商:
太空探索技术公司
运营商所在国:
美国
制造商(研发单位):
太空探索技术公司
制造商所在国:
美国
使用方式:
暂无
Satellite Introduction
星链(Starlink)计划是由太空探索技术公司(SpaceX)提出的一个巨型低轨卫星互联网星座项目,计划在2019年至2024年间在太空搭建由约1.2万颗卫星组成的“星链”网络,其中1584颗将部署在地球上空550千米处的近地轨道,并从2020年开始工作。该卫星仍在工作。
2D Orbit Map
3D Orbit Map
Orbit Altitude Analysis Chart
Orbit Inclination Analysis Chart
Orbit Comprehensive Analysis Chart
View Comprehensive Chart